Showing default

CHINASAT 18, 44493

Orbit data source: Space-Track

CHINASAT 18, 44493 is a payload satellite owned by PLA SSF (CN) in HEO that was launched on Mon, 19 Aug 2019 UTC via a CHANG ZHENG 3B launch vehicle from the Xichang Space Center, China (XSC). Payload-class satellites include a variety of spacecraft equipped with specific instruments for various scientific and technological missions. These include communications satellites like Starlink; space stations such as the ISS; scientific satellites like the Hubble; Earth observation satellites from companies like Planet Labs, Umbra, and HawkEye 360; GPS; miniature CubeSats for education and research; and military/defense satellites.

Loading next visibility...
Identifier
44493, 2019-053A
Orbit
HEO
Country
Flag of CNCN / PRC
Related business
Manufacturer
CAST
Mission
Non-operational Civil Communications
Bus & Motor
DFH-4, DFH-4 LAE
Mass
~5,250 kg wet, ~2,500 kg dry
Launch date (UTC)
2019-08-19 (6 years ago)
Launch vehicle
CHANG ZHENG 3B
Launch site
Xichang Space Center, China (XSC)
Object type
Payload
Rocket body
Debris
Shape & HBR
Box + 2 Pan, 15.0 m
Radar Cross Section
34.063 m², Large (>1 m²)

Expand to show TLE details & history
Last TLE update: 19 hours ago

TLE from 19 hours ago
0 CHINASAT 18
1 44493U 19053A   25354.47701724  .00140466  35298-6  36371-3 0  9990
2 44493  28.3065 143.9636 6357990 136.1374 297.0389  3.62499230 63191
Epoch: 2025-12-20T11:26Z
TLE epoch observation values (Epoch: 2025-12-20T11:26:54.289Z)
Latitude
0.00001°
Longitude
-117.07947°
Altitude
13,291.069 km
Speed
4.274 km/s
True Right ascension
09h 35m 47s
True Declination
0° 00' 00"
Sunlit
Object was in daylight at epoch
Visualization orbit readout
Latitude
Unknown
Longitude
Unknown
Altitude
Unknown
Speed
Unknown
Apparent Right ascension
Unknown
Apparent Declination
Unknown
Sunlit
N/A
Visualization observer readout
Local Sidereal Time
05:21:51
Azimuth
Unknown
Elevation
Unknown
Doppler factor
Unknown
Orbital elements
Apogee altitude
22,909.209 km
Perigee altitude
142.518 km
Semi-major axis
17,904 km
Eccentricity
0.6358
Inclination
28.3065°
RAAN
143.9636°
Arg. of periapsis
136.1374°
True anomaly
223.93638°
Mean anomaly
297.0389°
Eccentric anomaly
261.05349°
Mean motion
0.90598 °/min
Orbital period
397.36 mins
BSTAR
0.00036371
Loading maneuver chart data...
Computing Atmospheric mass density...
Loading historical data...
Loading historical data...
Loading historical data...
Loading historical data...
Loading historical data...
Loading historical data...
Loading historical data...
Other satellites on launch #53 in the year 2019 (2019-08-19 UTC)

Documentation

Showing up to 5 results
|